Lapse_Rate
8.2 8.4 8.5 8.7 7.8 6.6 7.7 4.5 4.4 4.5 4.6 4.5 4.1 4.2 4.7 5.3 5.2 5.0 5.6 6.4 7.7 6.9 6.4 6.3 6.2 5.2 6.0 5.9 6.8 6.6 6.1 6.5
8.0 8.0 7.9 8.1 7.3 7.4 6.8 4.6 4.1 4.8 5.0 4.8 4.5 4.6 5.1 5.2 5.5 5.1 5.4 6.8 7.2 7.2 6.6 5.3 5.4 5.9 5.9 5.9 6.4 6.4 6.3 6.2
7.7 7.7 7.8 7.7 7.6 7.7 6.7 6.4 5.5 5.1 5.4 5.6 5.4 5.0 5.2 5.9 5.8 6.5 6.9 7.4 7.7 7.2 6.6 5.8 5.6 6.1 5.8 6.3 6.7 6.6 6.3 5.7
7.4 7.5 7.7 7.8 7.5 7.4 8.0 7.4 6.5 5.7 5.9 6.3 5.7 5.4 5.7 6.0 5.7 6.0 5.5 5.9 7.5 8.2 7.5 6.6 6.0 6.0 6.6 5.9 5.9 6.5 6.0 5.8
7.5 7.4 7.7 7.6 8.0 7.3 8.0 6.6 7.1 6.3 5.4 5.8 5.7 5.7 5.6 6.2 5.8 5.9 5.5 5.8 6.0 7.7 7.1 6.4 5.8 6.1 5.5 4.7 6.2 6.6 5.6 4.8
7.3 7.2 7.7 8.1 8.0 7.4 7.7 6.9 6.8 6.9 6.4 6.4 6.2 6.0 6.6 6.3 6.1 5.4 5.1 4.9 5.4 6.1 7.1 6.0 5.6 5.1 4.9 5.2 5.8 5.7 4.5 4.8
7.2 7.3 7.6 8.0 7.6 7.6 7.5 6.5 7.2 6.5 6.5 5.9 6.5 7.0 6.4 6.5 5.7 5.1 4.0 4.3 4.9 5.3 6.6 5.8 4.4 4.6 4.6 5.0 6.0 4.3 3.9 5.4
7.0 7.3 7.7 7.8 7.2 6.9 7.9 6.8 7.7 6.5 6.0 6.2 5.8 6.4 6.7 5.8 5.8 5.5 5.0 4.5 4.3 5.1 5.3 4.5 4.2 4.7 4.5 4.2 4.2 4.1 4.7 5.3
6.9 7.2 7.2 7.7 7.3 6.7 7.0 7.4 7.0 7.5 6.7 6.6 6.3 6.1 6.0 6.4 6.1 6.3 6.1 5.6 4.4 4.7 4.9 5.1 4.5 4.7 4.6 4.2 4.6 4.2 4.4 4.8
7.1 7.2 6.8 7.4 7.3 6.7 6.4 8.1 7.7 8.1 7.0 6.9 7.3 7.7 7.3 6.5 6.0 6.5 6.8 6.6 6.4 4.9 4.9 4.6 4.3 4.5 4.6 4.6 4.8 4.6 4.6 4.7
7.0 7.3 6.5 7.4 7.2 7.1 6.4 7.0 8.3 8.4 6.3 5.8 7.8 7.4 7.6 7.6 7.5 6.9 6.9 6.5 6.0 6.8 5.7 5.0 4.7 4.3 4.5 4.8 5.4 5.4 5.1 5.5
7.0 7.5 7.1 7.4 7.4 7.5 6.8 6.9 8.3 8.1 7.5 6.4 6.5 7.2 7.5 7.6 7.8 7.7 7.7 7.7 6.9 6.7 6.2 5.6 5.3 4.7 4.9 5.5 5.4 5.9 5.5 5.5
7.3 7.6 7.7 7.3 7.4 7.5 7.3 7.5 7.7 8.1 7.5 7.1 7.0 7.5 7.5 7.3 7.6 7.3 7.4 7.4 7.5 7.2 7.7 6.5 5.7 5.8 5.2 5.4 5.8 6.7 6.4 6.5
7.3 7.5 7.5 7.5 7.2 7.6 7.9 7.3 7.5 7.8 7.6 7.3 7.3 7.2 7.8 7.8 7.4 7.7 7.6 7.4 7.2 7.3 7.4 7.4 6.9 6.3 6.3 5.8 5.7 6.4 6.9 7.2
7.4 7.3 7.4 7.4 7.2 7.3 7.6 7.3 7.3 7.3 8.1 7.7 7.3 7.1 7.0 7.1 7.6 8.0 7.8 7.6 7.6 7.5 7.2 7.6 7.0 6.9 6.9 6.9 7.0 7.3 7.6 7.2
7.6 7.6 7.1 7.2 7.6 7.0 7.5 7.5 7.1 7.4 7.4 7.9 7.4 7.2 7.3 7.7 7.5 7.6 7.8 7.8 7.9 7.9 7.9 7.5 7.6 7.5 7.4 7.1 7.2 6.9 6.9 7.4
7.7 8.0 8.2 7.8 8.0 7.8 7.5 7.2 7.1 7.3 7.6 7.3 7.9 7.6 7.6 7.6 7.7 7.7 7.6 7.4 7.6 7.9 7.7 7.8 7.6 7.9 4.9 2.3 5.4 7.1 7.4 7.3
7.7 7.7 7.8 7.8 7.1 7.3 7.8 7.6 7.3 7.2 7.0 7.4 8.0 7.8 7.7 7.4 7.7 7.9 7.7 7.4 7.4 7.2 7.6 7.7 7.6 7.5 2.2 1.2 1.1 7.1 7.1 6.5
7.8 7.9 8.1 8.1 7.3 4.8 4.4 5.2 7.6 7.5 7.2 7.2 7.5 7.9 7.7 7.9 7.8 7.9 7.6 7.6 7.4 7.4 7.3 7.5 7.6 7.6 1.9 0.5 -0.0 5.3 6.7 4.6
Wind_Speed
11 10 9 9 13 12 10 8 9 7 7 8 7 7 6 12 11 15 17 10 10 11 11 8 7 4 5 5 4 4 4 4
13 10 9 9 11 11 11 11 11 8 7 8 8 9 9 7 8 14 17 15 14 12 6 5 7 5 6 6 4 5 3 4
15 13 10 9 11 12 13 11 13 9 7 7 7 9 8 10 8 14 16 13 16 11 6 6 6 5 6 6 6 3 3 4
17 16 12 11 12 11 12 12 14 11 11 8 8 7 7 8 7 7 6 7 16 16 12 9 8 6 7 7 6 7 4 3
18 17 16 14 12 13 13 13 11 13 12 10 13 10 10 9 10 8 7 8 7 10 10 10 7 5 6 7 6 4 4 5
17 19 17 15 13 13 11 14 14 13 14 13 11 11 9 8 8 11 11 8 6 7 11 10 8 4 6 9 7 6 4 4
14 17 16 15 14 13 14 14 14 14 13 13 14 14 13 11 11 10 9 9 8 6 10 9 7 7 6 7 13 10 6 5
13 16 16 16 17 16 13 17 16 16 15 14 15 14 15 15 16 13 13 9 9 11 9 11 10 10 7 5 5 6 6 5
11 15 17 16 17 18 17 18 17 18 17 15 15 16 11 11 15 12 12 12 12 15 13 11 12 12 10 8 5 5 6 6
11 12 17 17 17 18 18 17 18 19 18 16 16 15 14 14 16 15 13 15 14 16 16 14 13 14 14 14 9 8 7 8
4 11 15 16 16 15 17 15 17 15 19 17 15 16 15 12 14 17 17 17 18 19 17 16 15 14 14 15 12 11 10 10
6 2 9 15 14 16 17 17 17 15 17 18 17 16 17 16 15 15 16 15 17 18 19 19 18 16 16 14 16 16 16 14
5 5 3 12 13 15 16 15 16 14 13 16 17 17 18 18 18 18 17 17 17 19 18 20 21 20 18 18 18 17 18 17
8 10 4 5 12 13 15 16 16 13 13 14 15 16 16 18 18 17 17 17 18 17 19 19 21 21 21 21 20 20 18 17
9 9 11 3 8 10 12 13 15 15 13 15 16 17 18 16 15 16 16 18 17 18 20 19 20 20 21 21 20 20 20 18
15 15 16 17 13 8 11 11 13 15 16 15 17 15 14 15 16 16 16 16 16 18 18 19 17 18 15 20 20 20 19 19
14 14 15 16 17 13 8 11 12 14 16 18 15 15 16 17 16 16 16 17 18 18 19 19 19 15 19 21 20 17 17 17
11 12 13 15 17 17 15 10 8 13 16 17 16 16 17 18 17 17 18 19 17 19 19 18 20 20 18 20 21 16 14 13
8 11 12 13 16 19 18 20 15 9 13 15 16 16 18 17 17 19 19 16 17 17 18 17 17 16 15 18 18 17 15 9
Wind_Direction
193 183 167 171 149 152 153 139 142 136 140 138 139 142 138 150 153 160 182 183 163 148 211 209 123 137 127 136 150 132 145 164
174 177 153 155 135 147 148 154 150 148 154 148 147 160 163 155 162 171 172 178 185 183 170 152 145 150 141 141 141 151 156 190
167 165 165 167 155 154 154 164 158 164 159 159 153 156 165 166 157 172 188 189 183 186 174 173 160 157 160 159 146 146 163 174
167 166 175 171 166 172 164 174 164 168 170 160 154 149 149 160 165 173 188 196 185 195 176 175 185 172 165 161 149 168 170 176
169 167 176 175 184 166 178 169 179 167 174 168 166 171 166 174 176 182 189 193 195 193 170 166 182 166 164 153 169 176 161 173
173 168 175 177 176 166 183 160 186 173 183 175 174 174 178 177 176 171 182 189 202 224 185 169 176 176 165 170 173 188 182 165
171 165 168 178 167 169 174 173 178 182 181 172 186 178 173 180 178 179 177 184 196 197 185 173 171 184 178 183 191 184 194 192
169 163 170 179 172 171 178 171 190 181 184 184 188 187 186 183 188 192 189 188 194 202 184 186 186 190 192 182 185 190 186 182
172 175 172 182 175 173 182 176 192 181 187 194 188 190 198 190 190 194 203 201 201 198 197 193 192 192 195 194 197 194 185 196
186 192 175 180 179 177 182 189 190 188 188 193 203 200 198 190 190 194 199 208 210 208 201 202 199 197 201 200 198 202 203 209
150 193 174 178 178 177 177 193 198 191 184 194 201 203 203 204 193 199 197 202 206 210 206 207 207 208 205 207 213 214 216 224
102 340 170 175 173 178 181 190 203 200 186 188 196 201 202 202 210 205 204 199 197 204 207 207 211 210 210 212 215 215 217 223
55 131 202 173 178 182 187 192 206 204 194 190 196 197 200 204 207 205 201 204 204 205 202 205 209 211 209 211 216 217 221 224
348 344 184 196 182 189 192 194 199 216 200 196 198 203 202 207 207 204 206 204 206 206 209 208 209 211 212 213 215 219 224 227
2 342 342 238 182 186 201 197 195 199 218 204 206 208 209 210 211 209 205 205 206 204 207 208 209 212 213 216 217 222 224 228
9 360 349 352 357 195 197 201 194 198 210 219 216 210 214 215 214 212 212 211 209 212 210 211 211 211 215 216 218 221 225 228
7 4 354 351 341 346 304 199 203 196 209 219 217 211 211 217 217 214 213 216 215 214 213 212 212 217 210 204 210 218 220 223
356 3 3 355 344 337 332 337 274 204 208 219 219 216 215 217 216 215 217 215 212 218 218 218 218 219 211 206 208 219 225 228
359 20 8 2 1 356 345 343 325 305 225 218 216 219 221 221 215 219 220 216 215 216 220 220 223 226 204 200 198 213 224 210